User: anonymous   Login
Location: Les Chemineaux
(47.3024°N, 1.5104°E)
Time: 10:46:12
(UTC+00:00)
Language:

Cosmos 1470 - Orbit

View from above orbital plane
View from above orbital plane
View from above satellite
View from above satellite

Ground track
Ground track

The orbit data is extracted from the following two-line orbital elements,

1 14147U 83061A   25198.47560132  .00008636  00000-0  24840-3 0  9992
2 14147  82.4729 358.9852 0010225 123.3370 236.8854 15.35572947 51549
Epoch (UTC): 17 July 2025 11:24:51
Eccentricity: 0.0010225
inclination: 82.4729°
perigee height: 452 km
apogee height: 466 km
right ascension of ascending node: 358.9852°
argument of perigee: 123.3370°
revolutions per day: 15.35572947
mean anomaly at epoch: 236.8854°
orbit number at epoch: 5154

The dashed part of the orbit path shows where the satellite is in the earth's shadow,  

DLR